Weather in Volovo

Russia / Lipetsk Oblast     52°01′27″N   37°53′26″E
temp.,
°C
wind,
m/s
gust,
m/s
humid.,
%
clouds,
%
prec.,
mm/h
press.,
hPa
HPBL,
m
17 june, thu
thu1700:00+16nne49965 0.0 1016211
03:00+15ne411955 0.0 1017270
06:00+16ne411940 0.0 1018352
09:00+20ne711740 0.0 1019657
12:00+22ne78590 0.0 1020922
15:00+23ne67610 0.0 10201144
18:00+22ne69730 0.0 1021893
21:00+18ne613760 0.0 1022440
18 june, fri
fri1800:00+14ne412915 0.0 1023234
03:00+13ne411900 0.0 1024196
06:00+14ene411870 0.0 1025307
09:00+19ene69700 0.0 1025619
12:00+22e68590 0.0 10261251
15:00+23e67581 0.0 10251440
18:00+22ene58690 0.0 1025916
21:00+16e410830 0.0 1026190
19 june, sat
sat1900:00+14e49900 0.0 1027173
03:00+13e37920 0.0 1027115
06:00+14e48870 0.0 1027224
09:00+19e57720 0.0 1027623
12:00+22ese56570 0.0 10261046
15:00+23ese56520 0.0 10251111
18:00+22ese35650 0.0 1024797
21:00+17ese34840 0.0 102443
20 june, sun
sun2000:00+15ese34860 0.0 102554
03:00+14ese34920 0.0 102556
06:00+15e37880 0.0 1025173
09:00+20ese46682 0.0 1024505
12:00+23ese455619 0.0 1023935
15:00+25ese465169 0.0 10221170
18:00+24e466671 0.0 1021486
21:00+19e3484100 0.0 102164
21 june, mon
mon2100:00+18e488482 0.0 1021133
03:00+16e4890100 0.0 1021143
06:00+18e41084100 0.0 1020229
09:00+22ese6969100 0.0 1020475
12:00+26ese685898 0.0 1019740
15:00+28ese565315 0.0 10191006
18:00+27ese366783 0.0 1018476
21:00+22e458252 0.0 101966